Location: Unspecified
(0.0000°N, 0.0000°E)
Time: 02:55:16
(UTC+00:00)

SIRIUS-2 - Visible Passes

Search period start: 05 August 2021 00:00
Search period end: 15 August 2021 00:00
Orbit: 23358 x 24392 km, 65.6° (Epoch: 04 August)

Date Brightness Start Highest point End Pass type
(mag) Time Alt. Az. Time Alt. Az. Time Alt. Az.
05 Aug 11.4 17:49:43 10° NNW 20:58:30 72° WNW 06:34:33 10° NE daylight
07 Aug 11.3 06:13:52 10° SSW 17:13:48 32° ESE 19:12:25 10° SSE visible
08 Aug 11.5 18:47:57 10° NNW 21:34:18 55° WNW 07:45:13 10° NNE daylight
10 Aug 11.3 07:11:51 10° SSW 17:48:10 48° ESE 20:15:37 10° SSE visible
11 Aug 11.7 19:49:18 10° NNW 22:08:35 39° WNW 08:46:55 10° NNE visible
13 Aug 11.3 08:14:09 10° SSW 18:24:05 64° ESE 21:13:56 10° SSE visible
